K3BAY-1 Weather Reports


time (UTC)temp
C
wind
direction
speed
KPH
gust
KPH
rain 1hr
cm
rain 24hr
cm
rain mn
cm
humidity
%
barometer
mb
20260504070333 10 65 1.6 1.6 0.00 0.00 0.00 62 1014.2
20260504050721 10 73 0.0 0.0 0.00 0.00 0.00 60 1013.9
20260504050218 10 66 0.0 0.0 0.00 0.00 0.00 60 1013.9
20260504045716 10 64 0.0 0.0 0.00 0.00 0.00 58 1013.9
20260504045215 10 72 0.0 1.6 0.00 0.00 0.00 59 1013.9
20260504044714 10 68 0.0 0.0 0.00 0.00 0.00 61 1013.9
20260504044211 10 51 0.0 1.6 0.00 0.00 0.00 58 1013.6
20260504043708 10 77 0.0 1.6 0.00 0.00 0.00 58 1013.6
20260504043204 10 21 1.6 1.6 0.00 0.00 0.00 59 1013.6
20260504042702 10 82 0.0 3.2 0.00 0.00 0.00 60 1013.6
20260504042158 10 0 0.0 1.6 0.00 0.00 0.00 60 1013.6
20260504041654 10 81 1.6 3.2 0.00 0.00 0.00 59 1013.6
20260504041150 10 36 0.0 3.2 0.00 0.00 0.00 60 1013.9
20260504040648 10 10 0.0 1.6 0.00 0.00 0.00 61 1013.6
20260504040144 10 56 0.0 1.6 0.00 0.00 0.00 61 1013.2
20260504035641 10 74 0.0 0.0 0.00 0.00 0.00 61 1013.6
20260504035138 10 70 3.2 4.8 0.00 0.00 0.00 59 1013.6
20260504034636 10 77 0.0 1.6 0.00 0.00 0.00 58 1013.2
20260504034132 10 56 0.0 1.6 0.00 0.00 0.00 61 1013.2
20260504033630 10 31 0.0 1.6 0.00 0.00 0.00 64 1013.2
20260504033127 9 84 0.0 0.0 0.00 0.00 0.00 66 1013.2
20260504032624 9 81 0.0 0.0 0.00 0.00 0.00 64 1013.2
20260504032121 8 81 0.0 0.0 0.00 0.00 0.00 67 1013.2
20260504031618 8 82 0.0 0.0 0.00 0.00 0.00 67 1012.9
20260504031114 8 85 0.0 0.0 0.00 0.00 0.00 64 1012.9
20260504030611 8 85 0.0 0.0 0.00 0.00 0.00 65 1012.9
20260504030108 8 82 0.0 0.0 0.00 0.00 0.00 68 1013.2
20260504025605 8 82 0.0 0.0 0.00 0.00 0.00 68 1013.2
20260504025102 8 82 0.0 0.0 0.00 0.00 0.00 68 1012.9
20260504024559 8 84 0.0 0.0 0.00 0.00 0.00 68 1012.9
20260504024055 8 79 0.0 0.0 0.00 0.00 0.00 67 1012.6
20260504023552 8 78 0.0 0.0 0.00 0.00 0.00 66 1012.6
20260504023048 8 85 0.0 0.0 0.00 0.00 0.00 65 1012.6
20260504022544 8 81 0.0 0.0 0.00 0.00 0.00 65 1012.6
20260504022040 8 81 0.0 0.0 0.00 0.00 0.00 64 1012.6
20260504021538 8 81 0.0 0.0 0.00 0.00 0.00 63 1012.9
20260504021035 8 79 0.0 0.0 0.00 0.00 0.00 62 1012.6
20260504020532 8 81 0.0 0.0 0.00 0.00 0.00 61 1012.9
20260504020028 8 80 0.0 0.0 0.00 0.00 0.00 61 1012.6
20260504015525 9 81 0.0 0.0 0.00 0.00 0.00 60 1012.9
20260504015021 9 81 0.0 0.0 0.00 0.00 0.00 61 1012.9
20260504014517 9 81 0.0 0.0 0.00 0.00 0.00 60 1012.9
20260504014014 9 81 0.0 0.0 0.00 0.00 0.00 60 1012.9
20260504013512 9 81 0.0 0.0 0.00 0.00 0.00 59 1012.9
20260504013009 9 82 0.0 0.0 0.00 0.00 0.00 59 1012.9
20260504012506 10 77 0.0 0.0 0.00 0.00 0.00 59 1013.2
20260504012004 10 81 0.0 0.0 0.00 0.00 0.00 56 1012.9
20260504011500 10 79 0.0 0.0 0.00 0.00 0.00 56 1013.2
20260504010956 10 80 0.0 0.0 0.00 0.00 0.00 56 1013.2
20260504010452 10 81 0.0 0.0 0.00 0.00 0.00 55 1012.9
20260504005948 10 80 0.0 0.0 0.00 0.00 0.00 54 1012.9
20260504005445 10 81 0.0 0.0 0.00 0.00 0.00 53 1012.9
20260504004943 11 81 0.0 0.0 0.00 0.00 0.00 51 1012.9
20260504004440 11 83 0.0 0.0 0.00 0.00 0.00 51 1012.9
20260504003937 11 83 0.0 0.0 0.00 0.00 0.00 50 1012.9
20260504003433 11 77 0.0 0.0 0.00 0.00 0.00 49 1012.9
20260504002930 11 82 0.0 0.0 0.00 0.00 0.00 51 1012.9
20260504002427 12 80 0.0 0.0 0.00 0.00 0.00 50 1013.2
20260504001925 12 81 0.0 0.0 0.00 0.00 0.00 49 1013.2
20260504001422 12 82 0.0 0.0 0.00 0.00 0.00 47 1013.2
20260504000918 12 72 0.0 0.0 0.00 0.00 0.00 48 1013.2
20260504000416 13 74 0.0 0.0 0.00 0.00 0.00 46 1013.2
20260503235913 13 81 0.0 0.0 0.00 0.00 0.00 46 1013.2
20260503235411 13 80 0.0 0.0 0.00 0.00 0.00 45 1013.2
20260503234908 15 83 0.0 0.0 0.00 0.00 0.00 42 1013.2
20260503234405 15 82 0.0 0.0 0.00 0.00 0.00 40 1013.6
20260503233903 15 87 0.0 0.0 0.00 0.00 0.00 37 1013.2
20260503233359 16 69 0.0 0.0 0.00 0.00 0.00 36 1013.6
20260503232856 16 24 0.0 0.0 0.00 0.00 0.00 35 1013.2
20260503232353 16 86 0.0 9.7 0.00 0.00 0.00 35 1013.6
20260503231851 16 79 0.0 0.0 0.00 0.00 0.00 35 1013.6
20260503231347 17 65 0.0 0.0 0.00 0.00 0.00 34 1013.6
20260503230844 17 87 1.6 4.8 0.00 0.00 0.00 31 1013.6
20260503230340 18 57 0.0 3.2 0.00 0.00 0.00 32 1013.2
20260503225839 18 76 0.0 0.0 0.00 0.00 0.00 32 1013.2
20260503225334 17 78 0.0 0.0 0.00 0.00 0.00 32 1013.2
20260503224831 17 63 0.0 3.2 0.00 0.00 0.00 32 1013.6
20260503224328 17 83 0.0 3.2 0.00 0.00 0.00 33 1013.6
20260503223826 18 54 0.0 6.4 0.00 0.00 0.00 31 1013.6
20260503223323 18 52 0.0 0.0 0.00 0.00 0.00 31 1013.6
20260503222819 18 44 1.6 6.4 0.00 0.00 0.00 30 1013.6
20260503222317 17 100 0.0 9.7 0.00 0.00 0.00 30 1013.6
20260503221815 18 49 0.0 11.3 0.00 0.00 0.00 31 1013.6
20260503221314 18 82 3.2 9.7 0.00 0.00 0.00 33 1013.6
20260503220809 17 56 1.6 11.3 0.00 0.00 0.00 32 1013.9
20260503220306 18 71 1.6 3.2 0.00 0.00 0.00 30 1013.6
20260503215803 18 67 0.0 4.8 0.00 0.00 0.00 30 1013.6
20260503215300 18 57 1.6 11.3 0.00 0.00 0.00 30 1013.9
20260503214758 18 74 0.0 1.6 0.00 0.00 0.00 32 1013.9
20260503214255 18 92 0.0 6.4 0.00 0.00 0.00 33 1013.9
20260503213752 17 77 0.0 9.7 0.00 0.00 0.00 33 1013.9
20260503213250 18 97 0.0 9.7 0.00 0.00 0.00 34 1014.2
20260503212746 17 76 0.0 3.2 0.00 0.00 0.00 32 1013.6
20260503212244 19 98 3.2 6.4 0.00 0.00 0.00 33 1013.9
20260503211741 18 58 0.0 0.0 0.00 0.00 0.00 30 1013.9
20260503211238 18 47 0.0 3.2 0.00 0.00 0.00 31 1013.9
20260503210733 18 79 0.0 6.4 0.00 0.00 0.00 31 1013.9
20260503210231 18 73 0.0 3.2 0.00 0.00 0.00 31 1014.2
20260503205726 18 75 0.0 1.6 0.00 0.00 0.00 32 1014.2
20260503205222 17 93 0.0 3.2 0.00 0.00 0.00 33 1014.2
20260503204719 17 139 1.6 9.7 0.00 0.00 0.00 34 1014.2
20260503204217 17 110 3.2 6.4 0.00 0.00 0.00 32 1014.6
20260503203714 17 47 0.0 3.2 0.00 0.00 0.00 31 1014.2
20260503203211 17 143 1.6 11.3 0.00 0.00 0.00 31 1014.6
20260503202708 18 51 4.8 11.3 0.00 0.00 0.00 31 1014.6
20260503202206 17 108 4.8 4.8 0.00 0.00 0.00 34 1014.9
20260503201704 17 90 3.2 9.7 0.00 0.00 0.00 33 1014.9
20260503201201 17 60 6.4 9.7 0.00 0.00 0.00 34 1015.3
20260503200657 17 65 0.0 4.8 0.00 0.00 0.00 33 1014.9
20260503200154 17 69 1.6 6.4 0.00 0.00 0.00 34 1015.3
20260503195651 16 84 0.0 9.7 0.00 0.00 0.00 35 1015.3
20260503195148 17 74 1.6 9.7 0.00 0.00 0.00 35 1015.3
20260503194644 18 74 1.6 4.8 0.00 0.00 0.00 36 1015.3
20260503194140 16 86 0.0 4.8 0.00 0.00 0.00 34 1015.3
20260503193637 16 27 3.2 3.2 0.00 0.00 0.00 34 1015.6
20260503193132 17 13 4.8 9.7 0.00 0.00 0.00 34 1015.9
20260503192628 17 79 0.0 3.2 0.00 0.00 0.00 35 1015.6
20260503192124 17 32 0.0 3.2 0.00 0.00 0.00 35 1015.9
20260503191621 18 64 1.6 3.2 0.00 0.00 0.00 31 1015.9
20260503191118 16 96 3.2 6.4 0.00 0.00 0.00 38 1015.9
20260503190615 17 78 1.6 6.4 0.00 0.00 0.00 35 1015.9
20260503190112 16 117 4.8 11.3 0.00 0.00 0.00 37 1015.6
20260503185609 16 54 3.2 6.4 0.00 0.00 0.00 38 1015.6
20260503185108 16 49 0.0 4.8 0.00 0.00 0.00 37 1015.6
20260503184604 16 67 0.0 6.4 0.00 0.00 0.00 36 1015.9
20260503184101 16 91 1.6 12.9 0.00 0.00 0.00 34 1015.9
20260503183558 16 97 4.8 12.9 0.00 0.00 0.00 40 1015.9
20260503183055 15 74 1.6 9.7 0.00 0.00 0.00 39 1015.9
20260503182553 15 130 6.4 14.5 0.00 0.00 0.00 38 1015.9
20260503182051 16 157 4.8 6.4 0.00 0.00 0.00 38 1015.9
20260503181548 16 53 1.6 4.8 0.00 0.00 0.00 38 1015.6
20260503181044 16 37 3.2 4.8 0.00 0.00 0.00 34 1015.3
20260503180541 15 139 4.8 6.4 0.00 0.00 0.00 36 1014.9
20260503180038 15 115 1.6 17.7 0.00 0.00 0.00 40 1014.6
20260503175536 15 59 1.6 6.4 0.00 0.00 0.00 39 1014.9
20260503175033 15 117 4.8 12.9 0.00 0.00 0.00 39 1014.6
20260503174530 14 52 1.6 14.5 0.00 0.00 0.00 37 1014.6
20260503174026 15 120 9.7 16.1 0.00 0.00 0.00 42 1014.6
20260503173521 16 60 3.2 4.8 0.00 0.00 0.00 40 1014.9
20260503173018 16 93 4.8 14.5 0.00 0.00 0.00 35 1014.6
20260503172516 15 80 3.2 4.8 0.00 0.00 0.00 37 1014.9
20260503172012 15 89 3.2 6.4 0.00 0.00 0.00 38 1014.9
20260503171509 13 132 4.8 16.1 0.00 0.00 0.00 42 1014.9
20260503171007 15 122 9.7 14.5 0.00 0.00 0.00 39 1015.3
20260503170503 15 102 6.4 9.7 0.00 0.00 0.00 38 1015.3
20260503150855 11 146 6.4 11.3 0.00 0.00 0.00 50 1014.9
20260503150351 11 119 14.5 16.1 0.00 0.00 0.00 51 1014.6
20260503131245 9 74 6.4 9.7 0.00 0.00 0.00 57 1015.3
20260503130742 9 107 3.2 14.5 0.00 0.00 0.00 58 1013.9
20260503130240 9 109 11.3 16.1 0.00 0.00 0.00 58 1013.6
20260503120206 7 62 4.8 9.7 0.00 0.00 0.00 63 1012.6
20260503110633 6 72 1.6 6.4 0.00 0.00 0.00 70 1012.2
20260503110130 6 137 4.8 9.7 0.00 0.00 0.00 70 1012.6
20260503081440 6 93 0.0 0.0 0.00 0.00 0.00 75 1012.2
20260503080938 6 101 3.2 3.2 0.00 0.00 0.00 74 1011.9
20260503080434 6 90 3.2 4.8 0.00 0.00 0.00 75 1012.2
20260503072909 6 75 1.6 3.2 0.00 0.00 0.00 74 1011.5
20260503072402 6 74 0.0 3.2 0.00 0.00 0.00 73 1011.5
20260503071858 6 79 1.6 3.2 0.00 0.00 0.00 73 1011.5
20260503071356 7 38 1.6 6.4 0.00 0.00 0.00 72 1011.5
20260503070851 7 358 3.2 6.4 0.00 0.00 0.00 73 1011.5